QPF
0.04 0.03 0.03 0.03 0.03 0.03 0.03 0.02 0.02 0.02 0.02 0.02 0.01 0.01 0.02 0.02 0.02 0.03 0.03 0.03 0.03 0.03 0.03 0.03 0.02 0.02 0.02 0.02 0.02 0.02 0.02 0.03 0.03 0.03 0.02 0.01 0.01 0.01 0.01 0.01 0.01 0.01 0.00
0.03 0.03 0.02 0.02 0.02 0.02 0.02 0.02 0.01 0.02 0.02 0.02 0.02 0.01 0.01 0.01 0.01 0.02 0.02 0.02 0.02 0.02 0.02 0.02 0.02 0.02 0.02 0.02 0.01 0.01 0.01 0.01 0.02 0.02 0.02 0.01 0.01 0.00 0.01 0.01 0.01 0.00 0.00
0.03 0.02 0.01 0.01 0.01 0.01 0.01 0.01 0.01 0.02 0.02 0.01 0.01 0.01 0.01 0.01 0.01 0.01 0.01 0.01 0.01 0.01 0.02 0.02 0.02 0.02 0.02 0.02 0.01 0.01 0.01 0.01 0.01 0.01 0.01 0.01 0.01 0.01 0.01 0.01 0.00 0.00 0.00
0.02 0.02 0.01 0.01 0.01 0.01 0.01 0.01 0.01 0.01 0.01 0.01 0.01 0.01 0.01 0.01 0.01 0.01 0.01 0.01 0.01 0.01 0.01 0.01 0.01 0.01 0.01 0.02 0.01 0.01 0.01 0.01 0.01 0.01 0.01 0.01 0.01 0.01 0.01 0.01 0.01 0.00 0.00
0.02 0.02 0.01 0.01 0.01 0.01 0.01 0.01 0.01 0.01 0.01 0.01 0.01 0.01 0.01 0.01 0.01 0.01 0.01 0.01 0.01 0.01 0.01 0.01 0.01 0.01 0.01 0.01 0.02 0.01 0.01 0.02 0.02 0.01 0.01 0.01 0.01 0.01 0.01 0.01 0.01 0.00 0.01
0.02 0.02 0.01 0.01 0.01 0.01 0.00 0.00 0.00 0.00 0.01 0.01 0.01 0.01 0.01 0.01 0.01 0.01 0.01 0.01 0.01 0.01 0.01 0.01 0.01 0.02 0.02 0.02 0.02 0.02 0.02 0.02 0.02 0.02 0.02 0.01 0.01 0.01 0.01 0.01 0.01 0.01 0.01
0.01 0.02 0.02 0.01 0.01 0.01 0.00 0.00 0.00 0.00 0.00 0.01 0.01 0.01 0.01 0.01 0.01 0.01 0.01 0.01 0.01 0.01 0.01 0.01 0.01 0.01 0.02 0.01 0.02 0.02 0.02 0.02 0.02 0.02 0.03 0.02 0.02 0.01 0.01 0.01 0.01 0.01 0.01
0.01 0.01 0.01 0.02 0.01 0.01 0.01 0.01 0.00 0.00 0.01 0.01 0.01 0.01 0.01 0.01 0.01 0.01 0.01 0.01 0.01 0.01 0.01 0.01 0.01 0.01 0.02 0.02 0.02 0.02 0.01 0.01 0.02 0.02 0.02 0.02 0.02 0.02 0.02 0.03 0.02 0.02 0.01
0.01 0.01 0.00 0.01 0.01 0.01 0.01 0.01 0.01 0.01 0.01 0.01 0.01 0.01 0.01 0.01 0.02 0.02 0.01 0.01 0.01 0.01 0.01 0.01 0.01 0.01 0.02 0.02 0.02 0.02 0.01 0.01 0.02 0.02 0.02 0.02 0.03 0.02 0.02 0.02 0.02 0.02 0.01
0.01 0.01 0.00 0.00 0.00 0.01 0.01 0.02 0.02 0.02 0.01 0.01 0.01 0.01 0.01 0.01 0.02 0.02 0.01 0.01 0.01 0.01 0.01 0.01 0.01 0.01 0.01 0.02 0.02 0.02 0.02 0.02 0.02 0.02 0.02 0.02 0.02 0.02 0.02 0.02 0.02 0.02 0.01
0.00 0.00 0.00 0.00 0.00 0.00 0.00 0.01 0.01 0.02 0.01 0.01 0.01 0.01 0.01 0.01 0.01 0.01 0.01 0.01 0.02 0.01 0.01 0.01 0.01 0.01 0.02 0.02 0.02 0.02 0.02 0.02 0.03 0.02 0.02 0.02 0.02 0.02 0.02 0.02 0.01 0.02 0.02
0.00 0.00 0.00 0.00 0.00 0.00 0.00 0.00 0.00 0.01 0.01 0.01 0.01 0.01 0.01 0.01 0.01 0.01 0.01 0.01 0.02 0.02 0.01 0.01 0.01 0.01 0.02 0.02 0.02 0.02 0.02 0.02 0.01 0.01 0.01 0.01 0.01 0.02 0.01 0.01 0.01 0.01 0.02
0.00 0.00 0.00 0.00 0.00 0.00 0.00 0.00 0.01 0.01 0.01 0.01 0.01 0.01 0.01 0.01 0.00 0.00 0.01 0.01 0.01 0.01 0.01 0.01 0.01 0.01 0.01 0.01 0.01 0.01 0.01 0.01 0.01 0.01 0.01 0.01 0.01 0.01 0.01 0.01 0.01 0.02 0.01
0.00 0.00 0.00 0.00 0.00 0.00 0.00 0.00 0.01 0.01 0.01 0.01 0.01 0.01 0.01 0.00 0.00 0.01 0.01 0.01 0.01 0.01 0.01 0.01 0.01 0.01 0.01 0.01 0.01 0.01 0.01 0.01 0.01 0.01 0.01 0.01 0.01 0.01 0.01 0.01 0.01 0.01 0.01
0.00 0.00 0.00 0.00 0.00 0.00 0.00 0.00 0.00 0.00 0.01 0.01 0.01 0.01 0.01 0.01 0.01 0.01 0.01 0.01 0.02 0.02 0.01 0.01 0.00 0.00 0.01 0.01 0.01 0.01 0.01 0.01 0.01 0.01 0.01 0.01 0.01 0.01 0.01 0.01 0.01 0.01 0.01
0.00 0.00 0.00 0.00 0.00 0.00 0.00 0.00 0.00 0.00 0.00 0.01 0.01 0.01 0.01 0.01 0.01 0.01 0.01 0.01 0.01 0.01 0.01 0.01 0.00 0.01 0.01 0.01 0.01 0.01 0.01 0.01 0.01 0.01 0.01 0.01 0.01 0.01 0.02 0.01 0.01 0.01 0.01
0.00 0.00 0.00 0.00 0.00 0.00 0.00 0.00 0.00 0.00 0.00 0.00 0.00 0.01 0.01 0.01 0.01 0.01 0.01 0.01 0.01 0.01 0.01 0.01 0.00 0.01 0.01 0.01 0.01 0.01 0.01 0.01 0.01 0.01 0.01 0.01 0.01 0.01 0.02 0.02 0.01 0.01 0.01
0.00 0.00 0.00 0.00 0.00 0.00 0.00 0.00 0.00 0.00 0.00 0.00 0.00 0.01 0.01 0.01 0.01 0.01 0.01 0.01 0.01 0.00 0.00 0.01 0.01 0.01 0.01 0.01 0.01 0.01 0.01 0.01 0.01 0.01 0.01 0.01 0.01 0.02 0.02 0.01 0.01 0.01 0.01
0.00 0.00 0.00 0.00 0.00 0.00 0.00 0.00 0.00 0.00 0.00 0.00 0.00 0.00 0.01 0.01 0.01 0.01 0.01 0.01 0.01 0.01 0.01 0.01 0.01 0.01 0.01 0.01 0.01 0.01 0.01 0.01 0.01 0.01 0.01 0.01 0.01 0.02 0.02 0.02 0.01 0.01 0.01
0.00 0.01 0.01 0.01 0.01 0.01 0.01 0.01 0.01 0.00 0.00 0.00 0.00 0.00 0.00 0.01 0.01 0.01 0.01 0.01 0.01 0.01 0.01 0.01 0.01 0.01 0.01 0.01 0.01 0.01 0.01 0.01 0.01 0.01 0.01 0.01 0.01 0.02 0.02 0.02 0.02 0.02 0.02
0.01 0.01 0.01 0.01 0.01 0.01 0.01 0.01 0.01 0.01 0.01 0.01 0.00 0.00 0.01 0.01 0.00 0.01 0.01 0.01 0.01 0.01 0.01 0.01 0.01 0.01 0.01 0.01 0.01 0.01 0.01 0.01 0.01 0.01 0.01 0.01 0.02 0.02 0.02 0.02 0.02 0.02 0.02
0.01 0.01 0.01 0.01 0.01 0.01 0.01 0.01 0.01 0.01 0.01 0.01 0.01 0.00 0.01 0.01 0.01 0.01 0.01 0.01 0.01 0.01 0.02 0.02 0.01 0.01 0.01 0.01 0.01 0.01 0.01 0.01 0.01 0.01 0.01 0.02 0.02 0.02 0.02 0.02 0.02 0.02 0.02
0.01 0.01 0.01 0.01 0.01 0.01 0.01 0.01 0.01 0.01 0.01 0.01 0.01 0.01 0.01 0.01 0.01 0.01 0.01 0.01 0.01 0.01 0.02 0.02 0.02 0.02 0.01 0.01 0.01 0.02 0.02 0.02 0.01 0.02 0.02 0.02 0.02 0.02 0.02 0.02 0.02 0.02 0.02
0.01 0.01 0.01 0.01 0.01 0.01 0.01 0.01 0.01 0.01 0.01 0.01 0.01 0.01 0.01 0.01 0.01 0.01 0.01 0.01 0.01 0.01 0.01 0.01 0.01 0.01 0.01 0.01 0.01 0.02 0.02 0.02 0.02 0.03 0.03 0.03 0.02 0.02 0.02 0.02 0.02 0.02 0.02
0.01 0.01 0.01 0.01 0.01 0.01 0.01 0.01 0.01 0.01 0.01 0.01 0.01 0.01 0.01 0.01 0.01 0.01 0.01 0.01 0.01 0.01 0.01 0.01 0.01 0.01 0.01 0.01 0.01 0.01 0.01 0.02 0.02 0.02 0.03 0.02 0.02 0.02 0.02 0.02 0.02 0.02 0.02
0.01 0.01 0.01 0.01 0.01 0.01 0.01 0.01 0.01 0.01 0.01 0.01 0.01 0.01 0.01 0.01 0.01 0.01 0.01 0.01 0.01 0.01 0.01 0.01 0.01 0.01 0.01 0.01 0.01 0.01 0.01 0.02 0.02 0.02 0.02 0.02 0.02 0.02 0.02 0.02 0.02 0.02 0.02
MSLP
1023.34 1023.63 1023.90 1024.10 1024.21 1024.22 1024.17 1024.11 1024.08 1024.13 1024.28 1024.55 1024.92 1025.36 1025.81 1026.26 1026.66 1027.01 1027.31 1027.58 1027.85 1028.13 1028.41 1028.69 1028.95 1029.16 1029.28 1029.29 1029.18 1028.98 1028.69 1028.37 1028.04 1027.74 1027.49 1027.28 1027.10 1026.93 1026.73 1026.49 1026.19 1025.83 1025.42
1022.48 1022.74 1022.99 1023.18 1023.29 1023.32 1023.30 1023.27 1023.28 1023.37 1023.56 1023.86 1024.26 1024.71 1025.18 1025.63 1026.04 1026.39 1026.70 1026.98 1027.25 1027.52 1027.79 1028.07 1028.33 1028.54 1028.67 1028.71 1028.64 1028.49 1028.26 1027.99 1027.70 1027.43 1027.18 1026.96 1026.75 1026.52 1026.27 1025.97 1025.62 1025.22 1024.80
1021.58 1021.81 1022.04 1022.22 1022.33 1022.39 1022.40 1022.42 1022.49 1022.63 1022.88 1023.23 1023.66 1024.14 1024.64 1025.11 1025.54 1025.91 1026.23 1026.51 1026.78 1027.04 1027.30 1027.55 1027.78 1027.97 1028.09 1028.12 1028.07 1027.93 1027.72 1027.48 1027.22 1026.96 1026.71 1026.47 1026.22 1025.96 1025.65 1025.31 1024.92 1024.50 1024.06
1020.65 1020.87 1021.09 1021.27 1021.40 1021.49 1021.56 1021.65 1021.79 1022.01 1022.32 1022.73 1023.21 1023.73 1024.25 1024.75 1025.19 1025.57 1025.90 1026.18 1026.43 1026.67 1026.89 1027.10 1027.29 1027.42 1027.50 1027.49 1027.41 1027.27 1027.06 1026.82 1026.57 1026.32 1026.06 1025.81 1025.54 1025.25 1024.92 1024.54 1024.13 1023.70 1023.28
1019.78 1019.99 1020.20 1020.40 1020.57 1020.71 1020.85 1021.03 1021.26 1021.57 1021.97 1022.45 1022.98 1023.53 1024.08 1024.58 1025.02 1025.40 1025.71 1025.96 1026.18 1026.37 1026.53 1026.68 1026.79 1026.85 1026.86 1026.80 1026.68 1026.50 1026.28 1026.04 1025.79 1025.54 1025.29 1025.04 1024.77 1024.48 1024.14 1023.77 1023.36 1022.94 1022.54
1019.05 1019.26 1019.49 1019.72 1019.93 1020.14 1020.37 1020.65 1020.99 1021.40 1021.88 1022.42 1023.00 1023.58 1024.12 1024.61 1025.02 1025.35 1025.61 1025.81 1025.96 1026.07 1026.16 1026.22 1026.24 1026.22 1026.15 1026.03 1025.86 1025.65 1025.42 1025.18 1024.95 1024.72 1024.50 1024.27 1024.03 1023.76 1023.45 1023.10 1022.72 1022.33 1021.94
1018.56 1018.79 1019.04 1019.29 1019.56 1019.85 1020.17 1020.55 1020.99 1021.49 1022.06 1022.65 1023.25 1023.82 1024.33 1024.77 1025.11 1025.36 1025.54 1025.65 1025.70 1025.73 1025.72 1025.69 1025.62 1025.53 1025.40 1025.22 1025.02 1024.80 1024.58 1024.36 1024.15 1023.97 1023.79 1023.62 1023.43 1023.21 1022.95 1022.64 1022.30 1021.93 1021.55
1018.39 1018.63 1018.90 1019.18 1019.50 1019.85 1020.26 1020.72 1021.25 1021.83 1022.44 1023.06 1023.65 1024.18 1024.63 1024.97 1025.21 1025.36 1025.42 1025.41 1025.37 1025.29 1025.19 1025.08 1024.95 1024.80 1024.64 1024.45 1024.24 1024.04 1023.84 1023.67 1023.52 1023.39 1023.28 1023.18 1023.05 1022.89 1022.69 1022.42 1022.11 1021.75 1021.38
1018.55 1018.80 1019.07 1019.37 1019.71 1020.11 1020.57 1021.09 1021.68 1022.30 1022.93 1023.53 1024.08 1024.54 1024.89 1025.12 1025.24 1025.25 1025.19 1025.07 1024.93 1024.77 1024.60 1024.44 1024.29 1024.12 1023.96 1023.79 1023.62 1023.46 1023.31 1023.20 1023.12 1023.06 1023.02 1022.97 1022.91 1022.80 1022.64 1022.40 1022.10 1021.74 1021.34
1018.99 1019.23 1019.49 1019.78 1020.13 1020.55 1021.03 1021.58 1022.17 1022.79 1023.40 1023.96 1024.43 1024.79 1025.03 1025.13 1025.12 1025.01 1024.84 1024.63 1024.41 1024.20 1024.02 1023.85 1023.70 1023.57 1023.44 1023.32 1023.21 1023.11 1023.04 1022.98 1022.96 1022.96 1022.96 1022.96 1022.93 1022.85 1022.70 1022.46 1022.15 1021.76 1021.30
1019.63 1019.84 1020.08 1020.35 1020.68 1021.08 1021.55 1022.08 1022.65 1023.23 1023.78 1024.26 1024.64 1024.89 1025.00 1024.98 1024.86 1024.65 1024.40 1024.14 1023.89 1023.68 1023.51 1023.38 1023.29 1023.22 1023.16 1023.11 1023.07 1023.03 1023.01 1023.00 1023.00 1023.02 1023.04 1023.04 1023.00 1022.90 1022.73 1022.46 1022.11 1021.66 1021.14
1020.38 1020.56 1020.76 1021.00 1021.29 1021.65 1022.08 1022.57 1023.08 1023.59 1024.05 1024.43 1024.69 1024.83 1024.83 1024.71 1024.50 1024.24 1023.95 1023.68 1023.45 1023.28 1023.17 1023.11 1023.10 1023.11 1023.13 1023.15 1023.17 1023.17 1023.17 1023.17 1023.16 1023.15 1023.13 1023.08 1022.99 1022.83 1022.60 1022.27 1021.85 1021.33 1020.74
1021.18 1021.32 1021.48 1021.67 1021.92 1022.23 1022.61 1023.02 1023.46 1023.88 1024.24 1024.51 1024.66 1024.69 1024.60 1024.41 1024.15 1023.86 1023.58 1023.34 1023.17 1023.07 1023.05 1023.08 1023.16 1023.25 1023.34 1023.41 1023.45 1023.46 1023.44 1023.39 1023.32 1023.24 1023.13 1022.99 1022.80 1022.55 1022.22 1021.81 1021.31 1020.73 1020.07
1021.97 1022.08 1022.20 1022.36 1022.57 1022.83 1023.15 1023.50 1023.85 1024.17 1024.42 1024.59 1024.64 1024.57 1024.41 1024.17 1023.89 1023.61 1023.37 1023.19 1023.09 1023.08 1023.15 1023.27 1023.42 1023.57 1023.70 1023.78 1023.81 1023.77 1023.69 1023.56 1023.39 1023.18 1022.95 1022.68 1022.37 1022.01 1021.59 1021.09 1020.52 1019.88 1019.16
1022.75 1022.84 1022.94 1023.07 1023.25 1023.49 1023.75 1024.04 1024.31 1024.54 1024.70 1024.77 1024.73 1024.59 1024.37 1024.10 1023.81 1023.56 1023.36 1023.24 1023.22 1023.29 1023.43 1023.61 1023.80 1023.97 1024.10 1024.15 1024.12 1024.00 1023.82 1023.57 1023.27 1022.94 1022.56 1022.17 1021.74 1021.27 1020.75 1020.18 1019.55 1018.86 1018.12
1023.53 1023.60 1023.70 1023.83 1024.00 1024.21 1024.45 1024.69 1024.90 1025.06 1025.13 1025.11 1024.99 1024.78 1024.51 1024.22 1023.94 1023.70 1023.54 1023.47 1023.49 1023.61 1023.78 1023.98 1024.17 1024.32 1024.39 1024.37 1024.26 1024.04 1023.74 1023.37 1022.94 1022.48 1021.99 1021.48 1020.95 1020.39 1019.81 1019.18 1018.52 1017.80 1017.05
1024.32 1024.38 1024.48 1024.62 1024.80 1025.02 1025.24 1025.44 1025.61 1025.70 1025.70 1025.60 1025.41 1025.14 1024.82 1024.50 1024.20 1023.96 1023.81 1023.76 1023.80 1023.91 1024.07 1024.24 1024.38 1024.47 1024.46 1024.36 1024.14 1023.82 1023.41 1022.93 1022.40 1021.84 1021.26 1020.68 1020.08 1019.47 1018.84 1018.19 1017.50 1016.77 1016.01
1025.09 1025.16 1025.27 1025.43 1025.62 1025.85 1026.06 1026.25 1026.37 1026.41 1026.34 1026.17 1025.91 1025.58 1025.21 1024.84 1024.51 1024.25 1024.08 1024.00 1024.01 1024.08 1024.18 1024.28 1024.35 1024.34 1024.24 1024.03 1023.71 1023.30 1022.81 1022.25 1021.66 1021.05 1020.43 1019.81 1019.18 1018.55 1017.90 1017.23 1016.52 1015.78 1015.00
1025.82 1025.89 1026.01 1026.19 1026.40 1026.63 1026.85 1027.01 1027.09 1027.08 1026.95 1026.71 1026.37 1025.98 1025.55 1025.12 1024.75 1024.44 1024.21 1024.08 1024.02 1024.01 1024.03 1024.03 1023.99 1023.88 1023.67 1023.37 1022.97 1022.49 1021.95 1021.36 1020.75 1020.12 1019.50 1018.87 1018.25 1017.61 1016.95 1016.25 1015.52 1014.74 1013.92
1026.47 1026.53 1026.66 1026.84 1027.07 1027.29 1027.49 1027.63 1027.67 1027.59 1027.40 1027.09 1026.68 1026.21 1025.72 1025.24 1024.80 1024.43 1024.13 1023.92 1023.78 1023.67 1023.58 1023.47 1023.32 1023.09 1022.79 1022.40 1021.94 1021.42 1020.85 1020.26 1019.65 1019.05 1018.44 1017.83 1017.21 1016.57 1015.89 1015.16 1014.37 1013.52 1012.62
1026.98 1027.03 1027.16 1027.34 1027.55 1027.76 1027.92 1028.02 1028.00 1027.86 1027.60 1027.22 1026.74 1026.21 1025.65 1025.11 1024.60 1024.17 1023.81 1023.51 1023.28 1023.07 1022.87 1022.64 1022.38 1022.05 1021.66 1021.20 1020.68 1020.13 1019.55 1018.97 1018.38 1017.80 1017.21 1016.61 1015.99 1015.32 1014.60 1013.80 1012.93 1011.98 1010.96
1027.32 1027.36 1027.48 1027.64 1027.82 1027.99 1028.11 1028.14 1028.06 1027.85 1027.51 1027.06 1026.52 1025.92 1025.31 1024.72 1024.17 1023.67 1023.25 1022.88 1022.56 1022.26 1021.95 1021.62 1021.25 1020.83 1020.35 1019.82 1019.26 1018.67 1018.08 1017.49 1016.91 1016.33 1015.75 1015.13 1014.48 1013.76 1012.95 1012.06 1011.07 1009.99 1008.83
1027.49 1027.53 1027.62 1027.75 1027.89 1028.01 1028.06 1028.01 1027.85 1027.56 1027.14 1026.63 1026.03 1025.39 1024.73 1024.11 1023.52 1022.99 1022.52 1022.09 1021.70 1021.32 1020.92 1020.49 1020.03 1019.51 1018.94 1018.34 1017.72 1017.09 1016.46 1015.84 1015.23 1014.61 1013.99 1013.32 1012.59 1011.78 1010.87 1009.85 1008.72 1007.49 1006.19
1027.53 1027.55 1027.62 1027.72 1027.81 1027.86 1027.83 1027.69 1027.44 1027.07 1026.58 1026.00 1025.35 1024.68 1024.00 1023.35 1022.75 1022.20 1021.69 1021.23 1020.78 1020.33 1019.85 1019.34 1018.78 1018.16 1017.51 1016.82 1016.11 1015.40 1014.70 1014.01 1013.33 1012.64 1011.92 1011.16 1010.33 1009.39 1008.35 1007.19 1005.92 1004.54 1003.09
1027.47 1027.49 1027.54 1027.60 1027.63 1027.60 1027.48 1027.26 1026.92 1026.46 1025.90 1025.27 1024.58 1023.88 1023.19 1022.54 1021.93 1021.36 1020.84 1020.34 1019.85 1019.34 1018.79 1018.19 1017.53 1016.82 1016.06 1015.26 1014.45 1013.63 1012.82 1012.02 1011.22 1010.41 1009.57 1008.68 1007.71 1006.64 1005.46 1004.16 1002.74 1001.24 999.67
1027.38 1027.39 1027.42 1027.43 1027.40 1027.29 1027.08 1026.77 1026.34 1025.80 1025.18 1024.50 1023.79 1023.07 1022.37 1021.71 1021.10 1020.52 1019.98 1019.45 1018.91 1018.34 1017.71 1017.02 1016.27 1015.45 1014.57 1013.65 1012.71 1011.77 1010.82 1009.88 1008.93 1007.98 1006.99 1005.94 1004.82 1003.61 1002.29 1000.85 999.32 997.71 996.05
Thickness
5482 5479 5476 5475 5472 5470 5466 5463 5460 5458 5455 5452 5449 5446 5442 5439 5436 5433 5429 5426 5422 5418 5414 5410 5406 5403 5398 5394 5390 5386 5382 5380 5380 5384 5381 5378 5375 5373 5371 5368 5367 5365 5363
5478 5474 5471 5469 5466 5463 5460 5457 5454 5451 5447 5444 5440 5437 5433 5430 5427 5423 5420 5416 5412 5408 5404 5400 5396 5392 5388 5384 5380 5377 5373 5370 5368 5370 5370 5366 5363 5361 5359 5357 5355 5353 5351
5473 5469 5465 5463 5459 5457 5453 5450 5446 5443 5439 5436 5432 5428 5425 5421 5418 5415 5411 5407 5403 5398 5394 5391 5386 5382 5378 5375 5371 5367 5364 5361 5359 5357 5358 5355 5352 5349 5347 5346 5344 5342 5339
5467 5464 5460 5457 5453 5450 5446 5443 5439 5435 5431 5427 5423 5420 5416 5413 5409 5406 5402 5398 5393 5389 5384 5380 5377 5373 5369 5365 5362 5358 5355 5351 5349 5346 5345 5345 5342 5339 5336 5334 5334 5331 5329
5461 5457 5454 5450 5446 5443 5439 5435 5431 5427 5423 5419 5415 5411 5408 5404 5401 5397 5393 5388 5384 5379 5375 5371 5367 5363 5360 5356 5353 5350 5346 5343 5340 5337 5335 5334 5332 5329 5326 5323 5321 5319 5318
5454 5451 5447 5442 5438 5435 5431 5427 5423 5419 5415 5411 5407 5403 5400 5396 5393 5389 5384 5380 5375 5371 5367 5363 5358 5354 5351 5347 5344 5341 5338 5334 5331 5328 5326 5325 5323 5318 5314 5311 5308 5306 5308
5448 5444 5439 5435 5431 5427 5423 5419 5415 5411 5407 5403 5400 5396 5392 5389 5385 5381 5376 5372 5367 5363 5358 5354 5351 5347 5342 5338 5335 5332 5329 5326 5323 5320 5317 5315 5312 5309 5304 5301 5298 5294 5294
5442 5438 5433 5428 5424 5419 5415 5412 5408 5403 5399 5396 5392 5388 5384 5381 5377 5373 5368 5363 5358 5354 5350 5346 5341 5337 5333 5330 5327 5324 5321 5318 5314 5311 5308 5306 5302 5298 5294 5291 5287 5284 5283
5437 5432 5427 5422 5417 5412 5408 5404 5400 5396 5392 5388 5384 5380 5376 5373 5368 5364 5359 5354 5350 5346 5341 5336 5331 5328 5325 5322 5319 5315 5313 5310 5305 5301 5298 5295 5291 5287 5283 5279 5275 5272 5273
5433 5428 5422 5416 5411 5407 5402 5397 5393 5389 5385 5381 5377 5372 5367 5363 5359 5355 5350 5345 5341 5337 5333 5328 5323 5320 5317 5313 5309 5305 5302 5299 5294 5291 5288 5285 5281 5277 5272 5267 5264 5259 5256
5427 5421 5415 5410 5405 5400 5396 5391 5386 5381 5376 5372 5368 5363 5358 5354 5350 5346 5341 5336 5332 5328 5324 5320 5316 5312 5308 5304 5300 5295 5292 5288 5283 5279 5276 5273 5270 5266 5262 5257 5252 5247 5243
5420 5415 5409 5404 5399 5394 5388 5383 5378 5373 5368 5363 5358 5354 5349 5344 5340 5336 5332 5328 5324 5319 5315 5311 5306 5302 5298 5294 5290 5286 5281 5276 5271 5267 5264 5261 5258 5254 5250 5245 5240 5236 5232
5413 5408 5402 5396 5391 5386 5381 5375 5369 5364 5359 5354 5349 5344 5340 5336 5331 5327 5323 5319 5315 5309 5305 5301 5296 5292 5287 5282 5278 5274 5269 5263 5259 5255 5252 5248 5244 5241 5237 5233 5229 5225 5221
5406 5401 5395 5390 5384 5378 5372 5367 5361 5356 5350 5345 5340 5336 5331 5326 5321 5317 5313 5308 5304 5299 5294 5289 5284 5279 5275 5270 5264 5259 5254 5250 5245 5241 5238 5235 5231 5227 5224 5221 5217 5214 5211
5399 5394 5388 5382 5376 5370 5364 5358 5353 5349 5343 5337 5333 5327 5322 5318 5314 5309 5303 5299 5293 5288 5282 5276 5271 5266 5261 5257 5252 5246 5240 5235 5230 5227 5223 5220 5218 5215 5212 5207 5204 5201 5198
5391 5385 5379 5373 5367 5361 5355 5349 5345 5339 5334 5329 5324 5319 5314 5309 5305 5300 5294 5289 5283 5278 5270 5263 5258 5253 5248 5243 5238 5233 5227 5221 5216 5212 5209 5206 5204 5201 5199 5196 5192 5189 5186
5382 5377 5370 5363 5357 5350 5344 5339 5334 5330 5324 5319 5314 5309 5304 5300 5295 5290 5284 5278 5272 5265 5256 5250 5246 5241 5236 5230 5225 5220 5215 5209 5204 5199 5197 5194 5191 5188 5185 5183 5180 5177 5174
5372 5366 5360 5354 5347 5340 5333 5327 5321 5316 5311 5307 5303 5298 5294 5290 5284 5278 5272 5266 5258 5251 5244 5239 5234 5230 5225 5219 5214 5209 5204 5199 5193 5188 5185 5182 5179 5176 5174 5172 5169 5165 5163
5361 5355 5349 5342 5336 5329 5322 5315 5309 5304 5299 5295 5290 5286 5282 5277 5272 5267 5260 5251 5245 5240 5235 5229 5224 5219 5214 5208 5203 5198 5192 5188 5183 5178 5175 5171 5168 5165 5163 5161 5158 5155 5152
5349 5343 5337 5330 5323 5317 5311 5305 5299 5293 5288 5283 5278 5274 5269 5264 5258 5253 5246 5240 5235 5230 5225 5219 5214 5208 5203 5198 5193 5188 5183 5178 5173 5169 5165 5162 5158 5155 5153 5151 5148 5145 5143
5337 5331 5325 5318 5311 5305 5299 5293 5287 5281 5276 5272 5268 5263 5260 5253 5248 5242 5236 5231 5225 5220 5215 5210 5205 5199 5194 5189 5184 5179 5174 5170 5166 5162 5158 5155 5151 5147 5144 5142 5139 5136 5134
5325 5319 5313 5306 5300 5294 5288 5282 5276 5270 5266 5261 5257 5251 5248 5242 5236 5232 5227 5221 5216 5210 5206 5200 5195 5190 5186 5181 5176 5172 5168 5164 5161 5156 5152 5149 5145 5141 5137 5134 5131 5128 5125
5312 5307 5300 5294 5288 5282 5276 5270 5264 5258 5253 5249 5245 5240 5234 5229 5225 5220 5216 5212 5207 5202 5197 5192 5187 5183 5179 5174 5169 5165 5162 5159 5155 5151 5147 5143 5138 5134 5130 5127 5124 5121 5119
5299 5293 5288 5281 5275 5270 5265 5259 5253 5247 5242 5237 5232 5228 5224 5219 5215 5211 5206 5202 5198 5193 5189 5184 5180 5176 5172 5168 5164 5160 5157 5153 5149 5145 5141 5137 5133 5128 5124 5121 5119 5116 5114
5285 5280 5274 5269 5263 5257 5252 5246 5241 5236 5230 5225 5221 5217 5213 5209 5205 5201 5197 5193 5189 5185 5181 5177 5173 5170 5167 5163 5159 5155 5152 5148 5144 5141 5137 5133 5129 5125 5121 5118 5116 5114 5111
5272 5266 5261 5255 5250 5245 5239 5234 5229 5224 5219 5215 5211 5207 5203 5199 5195 5192 5188 5184 5181 5177 5174 5170 5167 5164 5161 5157 5154 5150 5147 5144 5141 5137 5133 5130 5127 5124 5120 5118 5115 5113 5111